ECHOSTAR 6

导读

ECHOSTAR 6是美国EchoStar公司运营的地球静止轨道通信卫星,于2000年7月14日成功发射。作为EchoStar卫星星座的重要成员,它主要承担卫星电视广播传输服务,为北美地区提供直接到户的数字电视信号,依托高功率转发器技术保障信号稳定覆盖,助力EchoStar星座构建起覆盖广泛的卫星通信网络,推动了卫星电视业务的普及与发展。

基本信息
目录编号:
26402
目录名称:
ECHOSTAR 6
国际标识:
2000-038A
轨道中心:
EARTH
卫星名称:
ECHOSTAR 6
卫星全名:
--
卫星状态:
在轨 (已飞行9464 天)
发射日期:
2000-07-14 UTC
国别 :
美国 (US)
星等 :
--
轨道信息
数据来源 国际轨道数据 AOE轨道数据
星历时间 2026-06-12T04:10:36+0800
1天前
查看轨道信息
2026-06-11T10:00:00+0800
1天前
查看轨道信息
半长轴 42585.056km 42585.171km
偏心率 0.0004629 0.0004685
轨道倾角 10.846° 10.844°
近地点辐角 341.889° 341.537°
升交点赤经 46.670° 46.676°
平近点角 192.825° 283.813°
近地点 36187.206km 36187.082km
远地点 36226.632km 36226.986km
周期 1457.624分钟 1457.630分钟
每日圈数 0.987909 0.987905
详细信息
使用方式:
暂无
2D轨道图
3D轨道图
轨道高度分析图
轨道倾角分析图
轨道综合分析图
查看轨道综合分析图